Regional Weather Roundup
Issued by NWS Upton, NY

Current Version | Previous Version | Text Only | Print | Product List | Glossary On
Versions: 1 2 3 4 5 6 7 8 9 10 11 12 13 14 15 16 17 18 19 20 21 22 23 24 25 26 27 28 29 30 31 32 33 34 35 36 37 38 39 40 41 42 43 44 45 46 47 48 49 50
000 ASUS41 KOKX 241508 RWROKX REGIONAL WEATHER ROUNDUP NATIONAL WEATHER SERVICE NEW YORK NY 1100 AM EDT SAT SEP 24 2016 NOTE: "FAIR" INDICATES FEW OR NO CLOUDS BELOW 12,000 FEET WITH NO SIGNIFICANT WEATHER AND/OR OBSTRUCTIONS TO VISIBILITY. NYZ071-072-176-178-NJZ106-104-241600- NEW YORK CITY METRO AREA CITY SKY/WX TMP DP RH WIND PRES REMARKS Central Park CLOUDY 61 52 72 VRB5 30.16S LaGuardia APRT PTSUNNY 63 52 67 NE10 30.13S Kennedy INTL CLOUDY 61 54 77 N10 30.13S Newark/Liberty CLOUDY 62 52 69 N12 30.14R Bronx Bot Gard N/A 61 48 63 N5 30.13F Wall St Helipt CLOUDY 64 57 77 NE9G18 30.13S Teterboro CLOUDY 63 50 62 N9 30.13R $$ NYZ177-179-078>081-241600- LONG ISLAND NEW YORK CITY SKY/WX TMP DP RH WIND PRES REMARKS Farmingdale CLOUDY 60 55 83 NE14 30.12S MacArthur/ISP PTSUNNY 61 53 75 NE14 30.11S Shirley CLOUDY 60 53 77 VRB7 30.12S Riverhead NOT AVBL Westhampton CLOUDY 61 51 70 N10 30.13R Southampton NOT AVBL Bridgehampton NOT AVBL East Hampton CLOUDY 61 52 73 NE9 30.10F Montauk N/A 62 52 69 NE8 30.11S $$ NYZ052-065-067-241600- HUDSON VALLEY CITY SKY/WX TMP DP RH WIND PRES REMARKS White Plains MOSUNNY 61 48 62 VRB6 30.12F Newburgh MOSUNNY 63 46 55 NE12G21 30.17F Montgomery SUNNY 65 45 48 NE12 30.15F Poughkeepsie SUNNY 62 43 49 N9 30.15S Albany PTSUNNY 59 48 67 N9 30.19F $$ NJZ001-105-106-008-010-013-015-019>022-104-241600- NEW JERSEY CITY SKY/WX TMP DP RH WIND PRES REMARKS Newark/Liberty CLOUDY 62 52 69 N12 30.14R Teterboro CLOUDY 63 50 62 N9 30.13R Caldwell CLOUDY 62 51 67 CALM 30.15R Morristown CLOUDY 61 54 77 NE5 30.15R Somerville CLOUDY 63 51 65 N6 30.13R Linden NOT AVBL Sussex MOSUNNY 63 50 62 NE5 30.15F Abdover N/A 61 49 64 VRB6 30.15S Trenton CLOUDY 62 54 74 NE9 30.13R Millville CLOUDY 65 62 90 N10 30.10S Atlantic City CLOUDY 64 61 90 N12 30.09R FOG Wrightstown CLOUDY 60 57 88 N9 30.10R Toms River CLOUDY 61 58 90 NE13 30.12R Belmar CLOUDY 60 58 92 N10 30.13S FOG $$ PAZ047>061-062-071-241600- EASTERN PENNSYLVANIA CITY SKY/WX TMP DP RH WIND PRES REMARKS Philadelphia CLOUDY 63 56 78 NE8 30.13S Allentown CLOUDY 64 52 63 NE9 30.15S Scranton MOSUNNY 61 46 57 N8 30.17S $$ CTZ002-004>006-009-010-012-RIZ004-006-007-MAZ004-011-015-241600- SOUTHERN NEW ENGLAND IN CT CITY SKY/WX TMP DP RH WIND PRES REMARKS Bradley INTL PTSUNNY 60 46 59 N8 30.15S Hartford MOSUNNY 63 50 62 N10 30.14S Danbury SUNNY 62 40 44 NE12G22 30.14F Wtrbury/Oxford MOSUNNY 61 41 48 N14 30.15S Bridgeport PTSUNNY 63 50 62 N6 30.12F Meriden PTSUNNY 63 49 60 NE7 30.13F New Haven PTSUNNY 61 51 70 N8 30.13S Chester PTSUNNY 61 50 67 N9 30.12F Groton MOSUNNY 66 51 58 N9 30.10F Wilimantic MOSUNNY 64 47 53 NE12 30.13S IN RI CITY SKY/WX TMP DP RH WIND PRES REMARKS Providence PTSUNNY 64 44 48 N14 30.11F Block Island CLOUDY 61 51 70 N13 30.10F Westerly MOSUNNY 63 48 58 N6 30.11F IN MA CITY SKY/WX TMP DP RH WIND PRES REMARKS Boston MOSUNNY 61 43 51 N10 30.12S Worcester PTSUNNY 57 40 52 N8 30.13S Westfield SUNNY 63 45 51 N7G16 30.14F Provincetown MOSUNNY 63 50 62 N13G18 30.10S Nantucket CLOUDY 62 48 60 N17 30.07R $$ ANZ330-335-338-340-345-350-353-355-241600- COASTAL MARINE OBSERVATIONS STATION/POSITION TIME SKY/WX TEMP WIND PRES VSBY WAVE AIR SEA DIR/SP/G HT/PER (UTC) (F) (DEG/KT/KT) (MB) (MI) (FT/S) NY HARB ENTRANCE 1450 61 72 30/ 14/ 17 1019.3 6/ 6 20S FIRE ISLAND 1450 63 71 30/ 16/ 19 1018.5 6/10 GREAT SOUTH BAY 1415 62 73 20/ 12/ 16 N/A 23 SSW MONTAUK P 1450 62 69 20/ 16/ 19 1019.2 5/10 15 E BARNEGAT LI 1400 72 N/A 7/ 6 HUDSON CANYON 1350 65 71 1016.8 6/ 6 KINGS POINT 1436 61 74 1020.1 EXECUTION ROCKS 1430 62 20/ 12/ 16 N/A CENTRAL LI SOUND 1430 61 73 20/ 12/ 16 N/A 2/ 4 EASTERN LI SOUND NOT AVBL ROBBINS REEF 1448 61 350/ 13/ 14 1020.4 $$ >>>>>>>>>>>>>>>>>>>>>>>>>>>> KEY <<<<<<<<<<<<<<<<<<<<<<<<<<< > < > SKY/WX - Sky Condition/Present Weather < > TMP - Temperature in Fahrenheit < > DP - Dew Point in Fahrenheit < > RH - Relative Humidity in Percent < > WIND - Direction (from) and Speed in MPH < > PRES - Mean Sea Level Pressure (inches of Hg) < > WCI - Wind Chill Index < > VSB - VISIBILITY IN MILES < > HX - HEAT INDEX < > TC - TEMPERATURE IN CELSIUS < > VRB - VARIABLE WIND DIRECTION < > < >>>>>>>>>>>>>>>>>>>>>>>>>>>> KEY <<<<<<<<<<<<<<<<<<<<<<<<<<<

USA.gov is the U.S. government's official web portal to all federal, state and local government web resources and services.